STARLINK-1805, 46705

Orbit data source: Space-Track

STARLINK-1805, 46705 is a payload satellite owned by SpaceX/Seattle (US) in LEO that was launched on Sun, 18 Oct 2020 UTC via an FALCON 9 launch vehicle from the Air Force Eastern Test Range (AFETR). Payload-class satellites include a variety of spacecraft equipped with specific instruments for various scientific and technological missions. These include communications satellites like Starlink; space stations such as the ISS; scientific satellites like the Hubble; Earth observation satellites from companies like Planet Labs, Umbra, and HawkEye 360; GPS; miniature CubeSats for education and research; and military/defense satellites.

Loading next visibility...
Identifier
46705, 2020-073AM
Orbit
LEO
Last TLE update
19 hours ago
Origin
Manufacturer
SpaceX/Seattle
Mission
Operational Commercial Communications
Bus & Motor
STARLINK, Unknown motor
Mass
260 kg wet, ~248 kg dry
Launch date (UTC)
2020-10-18 (5 years ago)
Launch vehicle
FALCON 9
Launch site
Air Force Eastern Test Range (AFETR)
Object type
Payload
Rocket body
Debris
Shape & HBR
Box + 1 Pan, 8.86 m
Radar Cross Section
13.562 m², Large (>1 m²)

Expand to show TLE details & history

TLE from 19 hours ago
0 STARLINK-1805
1 46705U 20073AM  25128.46956433  .00001934  00000-0  14867-3 0  9998
2 46705  53.0536 186.8022 0000941  88.5629 271.5468 15.06394331250910
Epoch: 2025-05-08T11:16Z
Definitive object data (Epoch: 2025-05-08T11:16:10.358Z)
Latitude
0.00002°
Longitude
151.21945°
Altitude
548.09 km
Speed
7.589 km/s
True Right ascension
12h 27m 12s
True Declination
0° 00' 00"
Sunlit
Object was in full shadow at TLE epoch
Visualization TLE readout
Latitude
-52.00204°
Longitude
40.95097°
Altitude
565.896 km
Speed
7.578 km/s
Apparent Right ascension
03h 29m 01s
Apparent Declination
-48° 19' 15"
Sunlit
Object is in daylight
Visualization observer readout
Local Sidereal Time
14:04:45
Azimuth
233.842° WSW
Elevation
-72.778°
Doppler factor
1
Orbital elements
Apogee altitude
548.151 km
Perigee altitude
546.848 km
Semi-major axis
6,925.637 km
Eccentricity
0.0000941
Inclination
53.0536°
RAAN
186.8022°
Arg. of periapsis
88.5629°
True anomaly
271.53602°
Mean anomaly
271.5468°
Eccentric anomaly
271.54141°
Mean motion
3.76577 °/min
BSTAR
0.00014867
Orbital period
95.6 mins
Loading maneuver chart data...
Loading SW <> Apogee altitude chart data...
Loading historical data...
Loading historical data...
Loading historical data...
Loading historical data...
Loading historical data...
Loading historical data...
Loading historical data...

STARLINK-1805 Visibility forecast

Observer location: undefined°, undefined°

Span
Click to sort rows by Start time (UTC) header in descending order
Start Az.
Max El. time (UTC)
Max El. Az.
Max El.
End time (UTC)
End Az.
7 mins2025-05-09 06:32:59.975Z227.226° WSW2025-05-09 06:36:59.975Z64.489° ENE43.955°2025-05-09 06:39:59.975Z51.269° ENE
4 mins2025-05-09 08:14:59.975Z305.622° NW2025-05-09 08:16:59.975Z346.048° N20.046°2025-05-09 08:18:59.975Z20.631° NNE
4 mins2025-05-09 11:36:59.975Z356.835° N2025-05-09 11:37:59.975Z16.45° NNE19.14°2025-05-09 11:40:59.975Z67.138° ENE
6 mins2025-05-09 13:15:59.975Z312.676° NW2025-05-09 13:17:59.975Z339.375° N44.365°2025-05-09 13:21:59.975Z128.333° SE
|